Location: Bishopstone
(51.0167°N, 1.9000°W)
Time: 11:30:37
(UTC+00:00)

CZ-2C R/B - Visible Passes

Search period start: 07 December 2019 00:00
Search period end: 17 December 2019 00:00
Orbit: 784 x 871 km, 98.3° (Epoch: 06 December)

Date Brightness Start Highest point End Pass type
(mag) Time Alt. Az. Time Alt. Az. Time Alt. Az.
07 Dec 3.8 07:00:07 10° SE 07:05:04 42° ENE 07:09:58 10° N visible
08 Dec 4.3 06:42:03 10° ESE 06:46:39 31° ENE 06:51:11 10° N visible
09 Dec 4.7 06:24:10 10° ESE 06:28:16 24° ENE 06:32:20 10° N visible
10 Dec 5.0 06:06:30 10° E 06:09:56 18° NE 06:13:20 10° NNE visible
11 Dec 5.1 05:49:10 10° E 05:51:39 14° NE 05:54:06 10° NNE visible
12 Dec 5.4 05:33:07 10° NE 05:33:24 10° NE 05:33:41 10° NE visible
12 Dec 3.5 07:07:30 10° SE 07:12:33 48° ENE 07:17:31 10° N visible
13 Dec 4.0 06:49:21 10° SE 06:54:05 35° ENE 06:58:46 10° N visible
14 Dec 4.5 06:31:23 10° ESE 06:35:41 26° ENE 06:39:57 10° N visible
15 Dec 4.8 06:13:37 10° ESE 06:17:20 20° NE 06:21:01 10° N visible
16 Dec 5.1 05:56:06 10° E 05:59:01 15° NE 06:01:56 10° NNE visible
